Wind_Speed
31 30 29 28 27 26 27 28 31 34 35 34 32 31 30 30 30 30 30 30 30 30 29 28 28 29 29 30 30 30 31 34 37 42 46 50 55 58 56 53 50 50 51 51 53 56 58 58 57 55 54 56 57 58 58 56 49 42 39 42 45 46 46 46 44 42 40 39 41
31 30 28 27 26 26 27 30 33 35 35 33 31 30 30 30 29 29 29 29 29 28 27 27 26 27 28 28 28 28 29 32 37 41 46 50 54 57 59 57 54 52 51 51 53 56 58 58 58 57 56 56 56 56 57 57 50 42 39 41 45 48 48 47 45 43 43 42 43
30 29 28 27 27 27 29 32 35 36 35 32 30 29 29 29 29 28 28 28 28 27 27 26 26 26 26 26 26 27 28 32 37 42 46 49 53 55 57 58 56 54 52 52 53 55 56 56 56 57 57 56 56 55 56 57 52 44 39 40 44 48 49 48 47 45 45 45 45
30 29 28 27 27 28 30 33 35 35 34 31 30 29 29 29 29 28 28 27 27 27 27 26 25 25 25 25 25 27 29 33 38 42 46 49 51 53 54 55 55 54 53 52 52 52 52 53 54 56 57 57 56 55 56 58 54 46 39 39 43 47 49 49 47 46 46 46 46
30 29 28 28 27 28 30 32 34 34 32 30 29 29 29 29 29 29 28 27 27 27 27 26 25 25 25 25 26 28 31 34 39 43 47 49 50 51 52 52 53 54 54 53 51 50 50 52 53 55 56 57 56 56 57 58 56 49 41 38 42 45 48 48 48 47 47 47 48
30 29 28 27 27 28 30 32 33 32 30 29 28 29 29 29 29 29 28 27 26 26 26 26 26 25 25 25 27 30 33 36 41 44 47 48 49 50 51 51 52 53 54 53 51 50 50 52 54 55 55 56 56 56 57 58 56 50 42 38 40 44 46 48 48 47 47 48 49
29 29 28 27 27 29 31 32 31 30 28 27 28 29 30 30 30 29 28 26 25 26 27 27 26 26 25 26 28 31 34 38 42 45 47 47 47 48 49 51 52 54 55 55 53 52 52 54 56 57 57 56 56 55 55 55 55 50 44 39 39 41 44 47 47 48 48 48 48
28 28 28 27 28 30 31 31 30 28 26 27 28 29 30 31 31 29 27 25 25 26 27 28 27 26 25 25 27 30 34 38 42 44 46 48 48 49 51 52 53 54 55 55 55 54 55 56 57 58 56 55 54 52 52 53 54 51 46 41 39 40 42 45 46 47 48 48 48
28 28 28 28 29 30 31 30 28 26 25 26 27 29 30 31 31 29 26 24 24 25 27 28 28 27 26 25 27 29 33 37 41 43 45 48 50 51 51 51 52 53 55 55 56 56 56 57 58 58 56 54 51 50 49 51 53 52 48 43 40 39 40 42 44 46 47 47 45
29 28 28 29 30 30 29 28 26 25 25 26 27 29 31 32 31 27 24 22 23 25 27 28 28 28 27 26 27 29 32 35 39 42 45 47 49 49 49 49 50 51 53 55 57 57 57 57 57 57 56 54 51 49 49 50 52 53 51 46 42 39 38 38 40 42 45 45 43
28 28 29 30 30 29 27 26 25 24 25 26 28 31 32 32 30 25 22 21 22 25 28 29 29 29 28 28 28 29 31 34 38 42 44 46 47 47 46 46 46 48 51 54 56 57 57 57 57 57 55 53 51 50 50 51 52 53 53 50 45 42 39 36 36 38 42 44 43
28 28 29 29 29 28 26 24 24 25 27 28 30 32 33 31 27 23 20 20 22 25 28 30 30 30 30 30 29 29 30 33 38 41 44 46 45 44 43 44 44 45 48 51 53 54 54 54 56 56 55 54 52 51 51 51 52 52 53 52 49 45 41 37 35 37 40 43 43
28 28 29 29 29 27 25 24 24 26 28 30 32 33 32 30 25 21 19 20 22 25 27 29 30 30 31 31 31 31 30 31 35 39 42 44 44 44 44 44 43 43 45 48 50 50 50 50 52 54 54 54 53 52 52 52 51 51 51 51 50 47 43 39 38 39 41 43 43
28 29 29 29 29 27 25 24 24 26 28 31 32 33 31 28 23 20 19 20 21 23 26 28 29 30 31 31 31 30 29 29 31 35 38 40 42 44 45 45 44 43 44 47 49 49 48 48 49 51 52 53 53 53 53 52 51 50 50 50 50 48 46 44 43 43 43 43 43
28 29 29 29 28 27 25 24 25 27 29 31 32 32 31 27 23 20 19 19 20 22 24 26 28 29 30 29 29 29 28 28 28 30 32 36 39 42 44 46 45 44 43 45 47 49 50 50 49 49 49 51 53 54 53 52 50 49 49 50 50 50 49 48 46 45 44 43 43
29 29 29 28 27 26 25 25 26 27 29 30 32 32 30 27 22 20 19 19 19 20 22 24 26 28 29 28 27 27 28 28 28 28 29 31 34 38 42 45 46 45 43 43 44 48 51 53 52 49 47 48 52 54 54 52 50 49 49 51 51 51 51 49 47 44 43 43 44
29 29 28 27 26 25 25 25 26 28 29 30 32 31 29 25 22 19 18 18 19 20 21 23 24 26 27 27 27 27 29 30 29 29 28 29 31 33 37 41 44 44 43 42 43 46 50 54 54 51 46 45 47 51 54 53 50 49 49 51 52 52 51 49 46 43 42 43 45
27 27 26 25 24 24 24 24 26 28 29 30 31 30 27 24 21 19 19 19 19 20 21 21 22 23 25 26 27 27 29 30 31 31 30 30 30 31 34 36 39 41 42 43 45 47 50 53 54 52 47 42 42 46 51 53 51 50 49 51 51 52 51 49 46 42 41 42 45
26 26 25 24 24 24 24 24 26 27 28 29 28 26 24 22 21 20 20 20 21 21 21 20 20 21 22 23 25 26 28 29 31 32 32 32 32 32 33 34 36 38 40 43 46 48 50 51 52 51 47 42 39 41 46 50 52 51 51 51 52 52 52 51 47 43 40 40 42
26 25 25 25 26 26 26 26 27 27 27 26 24 22 21 20 21 21 22 22 22 21 20 20 19 19 19 21 22 24 26 27 29 30 31 32 33 33 34 34 36 37 39 41 45 47 50 51 50 49 46 42 39 38 41 45 49 51 52 53 53 54 54 53 49 44 39 36 36
25 26 27 27 28 28 28 28 28 27 26 24 21 19 19 19 20 20 21 21 21 21 20 19 18 18 18 19 21 23 24 26 27 29 30 31 31 32 33 34 35 36 38 40 43 46 49 50 50 48 46 44 41 38 38 41 44 47 50 52 53 54 55 53 50 45 40 36 34
26 27 28 28 29 29 29 29 28 26 24 22 20 19 19 19 19 19 19 19 20 20 19 19 18 17 18 19 20 21 23 24 25 27 28 29 30 30 31 32 34 35 36 38 41 44 46 48 49 49 47 46 43 41 39 40 41 43 46 48 50 52 52 51 49 46 42 38 36
27 28 29 29 29 29 28 28 26 25 23 21 21 21 21 20 19 18 17 17 18 18 18 18 17 17 17 18 19 20 21 23 24 26 27 28 29 29 30 30 31 32 34 36 38 40 43 45 47 48 48 47 45 44 42 42 42 42 43 44 46 46 47 47 47 46 44 42 41
27 28 29 28 28 27 26 25 24 23 22 22 22 22 22 21 19 17 16 16 16 17 17 17 17 17 17 17 18 18 20 21 23 24 25 27 28 28 29 29 30 30 31 33 35 37 39 41 43 45 47 47 47 46 45 45 44 44 44 43 43 44 44 45 46 47 46 45 44
27 27 27 26 26 25 24 23 23 22 22 23 22 22 22 21 20 18 16 15 15 15 16 16 17 17 17 17 17 17 17 19 20 22 23 25 26 27 28 28 29 29 30 31 32 34 35 37 39 42 45 47 47 47 47 47 47 46 46 45 44 44 44 45 46 47 48 48 47
25 24 23 23 23 22 22 22 22 22 22 23 23 22 22 21 20 19 17 15 14 14 14 15 16 17 17 17 16 15 15 16 17 18 20 22 24 26 27 28 28 29 29 30 31 32 33 34 36 39 42 44 46 47 48 48 48 48 47 46 45 45 45 46 47 49 49 50 49
23 21 20 21 21 21 21 22 22 23 23 23 23 23 22 21 20 19 18 16 14 13 13 14 14 15 15 15 14 13 13 13 14 15 17 20 22 24 26 27 28 28 29 29 29 30 30 32 34 36 39 41 43 45 46 47 47 47 47 47 46 46 46 47 48 50 50 50 50
22 20 20 21 22 22 23 24 25 25 25 24 23 22 21 20 20 19 18 16 15 14 13 13 13 14 13 13 13 12 12 12 13 14 15 17 19 22 24 25 26 27 27 27 27 28 28 30 31 34 36 38 39 41 42 44 44 45 45 46 46 46 47 48 49 49 50 49 48
22 21 21 23 25 26 26 27 27 27 25 23 22 20 20 19 19 19 18 16 15 14 14 13 13 13 13 13 13 13 13 13 13 14 15 16 17 19 21 23 24 25 25 25 25 25 26 27 28 30 32 34 36 37 38 39 40 41 42 43 45 45 46 46 47 47 47 46 44
23 23 24 26 27 28 28 28 27 25 24 22 20 19 19 18 18 18 17 15 14 14 14 13 13 13 13 13 13 13 14 14 15 15 15 15 16 17 19 20 22 23 23 23 23 23 23 23 24 26 28 30 32 33 34 36 37 38 38 38 39 40 41 41 41 41 40 39 38
24 25 26 27 27 28 27 26 25 23 22 21 20 19 18 18 17 16 15 14 13 13 13 13 13 13 13 13 13 13 14 15 15 16 16 15 15 15 16 18 19 20 21 21 21 20 20 20 21 21 22 24 26 29 32 33 34 34 34 34 35 35 36 36 35 35 34 34 33
24 26 27 27 27 27 26 25 24 23 22 21 20 19 18 17 16 15 14 13 13 13 13 13 13 12 12 12 12 13 14 14 15 15 15 15 15 14 14 15 16 18 19 19 19 19 19 18 18 18 18 20 24 28 31 31 31 32 32 33 34 34 34 34 34 33 32 32 31
24 26 27 28 27 27 27 26 25 24 23 21 20 19 19 17 16 14 14 14 14 14 14 13 12 10 10 10 10 11 12 13 14 14 14 14 13 13 13 14 16 17 18 18 18 18 17 17 16 16 17 20 25 29 31 31 30 30 30 31 32 33 33 33 32 31 31 31 31
24 25 27 28 28 28 28 27 25 23 22 22 22 21 19 18 16 15 15 15 15 14 13 11 10 9 8 7 8 8 9 10 11 11 11 11 11 12 13 15 17 18 17 16 16 15 15 15 15 15 17 21 25 28 30 30 29 28 28 28 28 28 29 29 29 29 29 30 30
23 23 25 26 27 27 26 24 22 22 22 23 23 22 20 18 17 16 16 15 15 13 12 10 8 8 7 7 7 8 9 10 10 11 11 11 12 14 16 19 20 19 17 16 15 14 14 15 15 16 18 21 24 26 28 28 28 27 26 25 25 25 26 26 27 27 28 29 29
22 22 23 23 25 25 24 22 21 22 23 23 23 22 20 18 16 16 15 15 13 12 10 9 8 8 9 11 13 14 15 16 16 15 15 15 16 18 20 22 21 19 18 16 15 15 15 15 16 17 18 20 23 25 26 27 27 26 26 25 25 25 25 25 26 26 27 27 28
22 21 22 22 23 24 24 23 22 23 23 23 22 21 19 17 16 15 14 13 12 11 9 9 10 12 15 17 18 18 18 18 19 19 18 18 19 20 21 21 21 19 18 17 17 16 16 16 17 18 19 20 22 23 24 25 26 26 26 26 26 26 26 26 26 26 27 27 27
22 21 22 22 23 24 24 24 23 23 23 22 21 20 18 16 14 14 13 12 11 10 10 12 15 17 19 19 19 18 18 18 18 19 19 20 20 20 21 20 20 19 18 18 17 17 17 17 18 19 20 21 21 22 23 24 25 25 26 26 26 26 27 27 27 27 27 27 28
21 21 21 22 23 23 23 24 23 23 22 21 20 18 17 15 13 12 11 11 11 13 15 17 19 20 20 20 19 18 18 17 17 18 18 19 20 20 20 20 19 19 18 18 17 17 17 18 18 19 20 21 21 22 23 23 24 24 25 25 25 26 26 27 27 28 28 28 28
20 20 20 21 21 22 23 23 22 21 20 19 18 17 16 14 13 12 12 14 15 17 19 20 21 21 21 20 19 19 18 18 17 17 17 18 18 18 19 19 19 18 18 17 17 18 18 18 19 19 20 21 21 22 22 23 23 24 24 25 25 26 26 26 27 28 28 28 28
20 19 19 19 20 20 21 21 21 20 19 18 17 16 16 15 15 16 17 18 19 20 20 21 21 21 21 21 20 19 18 18 18 18 17 17 17 17 17 17 17 17 17 17 18 18 19 19 19 19 20 20 21 21 22 22 23 24 24 25 25 25 26 26 26 26 26 27 26
Wind_Direction
226 226 225 223 222 222 224 227 227 227 225 224 224 227 230 230 228 229 230 232 233 234 234 233 229 225 222 221 221 222 224 226 226 223 218 213 207 203 201 200 201 203 206 208 207 205 203 202 203 205 208 211 212 213 214 216 220 224 225 223 223 224 225 225 221 213 205 203 208
226 226 225 223 223 223 225 227 227 227 226 226 228 231 232 231 229 228 230 231 233 235 235 234 230 225 222 222 223 226 229 231 229 225 219 214 210 207 205 205 205 206 208 208 207 206 205 205 205 206 208 210 212 214 215 217 221 224 224 221 220 221 223 224 222 215 207 204 208
225 224 224 223 222 223 225 226 226 226 226 228 231 232 232 231 229 229 229 232 234 234 234 233 230 226 224 224 226 230 233 233 230 225 220 215 212 210 209 208 209 209 209 208 208 208 208 207 207 207 208 210 212 214 216 218 222 226 225 219 216 217 220 222 221 216 209 207 208
223 223 223 222 222 223 225 227 227 227 229 230 232 232 231 230 230 229 230 231 232 232 232 232 230 228 227 227 230 232 233 232 229 224 219 215 212 211 210 210 210 209 209 208 208 209 209 209 209 209 209 210 212 214 216 219 222 225 226 219 214 213 215 219 219 215 211 209 210
221 222 223 224 223 224 226 227 227 229 230 232 231 229 228 228 228 229 229 229 230 231 232 231 230 229 229 229 231 232 231 228 225 220 216 213 211 210 210 209 209 208 208 208 208 209 210 210 209 210 210 211 212 214 216 218 220 223 224 218 212 210 211 213 215 214 212 211 212
219 222 225 225 224 224 225 228 229 231 232 231 228 226 225 226 226 226 227 227 229 231 232 232 230 229 229 229 230 229 227 224 220 216 212 209 208 207 208 208 209 208 208 208 209 210 210 210 210 211 211 212 214 216 217 218 219 221 221 217 212 209 209 209 210 211 211 212 214
220 222 224 224 224 225 226 228 231 233 232 228 226 224 225 225 226 226 227 228 227 229 231 232 231 229 228 227 227 226 224 221 217 213 209 205 203 203 204 207 209 209 209 209 210 211 211 211 211 211 212 213 215 217 218 218 219 220 220 216 213 211 209 208 208 209 210 212 215
221 223 225 224 224 225 226 228 231 231 229 226 224 225 226 226 227 228 228 227 226 227 229 231 232 231 229 227 225 224 222 219 215 211 207 204 202 202 204 206 208 210 211 211 212 212 212 212 212 211 212 213 215 217 217 218 219 221 221 218 214 213 212 211 210 210 211 213 216
219 222 225 224 224 225 226 229 230 228 226 224 225 226 227 228 228 228 227 226 226 227 229 231 232 232 231 228 226 224 222 219 216 213 210 207 206 205 205 206 208 211 213 214 214 213 213 213 212 212 212 213 214 216 216 216 219 221 223 221 218 215 215 215 215 215 215 215 217
218 220 222 223 224 225 226 227 227 226 224 225 226 228 228 227 226 226 227 226 226 226 228 230 232 233 232 230 228 225 223 221 219 216 215 214 212 211 209 209 210 212 213 215 215 214 213 213 212 212 212 214 214 214 214 215 218 221 224 225 223 219 216 216 218 219 218 218 218
218 219 221 222 224 225 225 225 224 223 224 226 228 228 227 224 224 225 226 225 224 224 226 229 231 232 233 232 230 227 225 222 220 219 218 218 217 215 213 211 211 212 213 214 213 212 212 212 212 213 214 215 215 215 214 215 217 220 223 226 226 223 219 219 221 222 221 219 219
219 219 220 222 224 224 223 222 221 222 224 226 227 226 224 222 222 222 222 221 222 223 225 227 229 230 231 231 230 228 226 222 219 218 218 218 218 215 212 210 211 212 211 210 208 208 209 210 212 214 216 217 217 216 215 216 217 219 222 225 227 225 222 223 227 229 227 223 220
219 219 220 222 223 224 222 219 219 221 224 226 226 224 223 222 222 221 219 218 221 223 224 225 226 227 227 227 226 226 225 224 220 218 217 217 216 214 211 210 211 211 209 206 204 205 207 211 214 216 218 219 218 217 216 217 218 219 221 224 226 226 226 229 234 236 233 228 223
218 219 220 221 222 222 220 218 218 221 224 225 225 224 224 224 224 220 216 217 221 224 225 225 225 225 224 223 223 222 223 224 223 221 220 219 217 215 213 212 213 213 211 207 205 205 207 211 215 218 220 221 220 219 217 218 219 220 221 222 224 226 228 232 236 237 235 229 225
218 219 220 221 221 220 218 217 218 221 223 225 225 226 227 227 225 219 214 216 221 226 227 227 226 225 224 224 223 222 221 222 224 224 224 223 221 219 217 217 217 217 216 213 211 210 211 213 216 218 220 221 222 221 219 219 220 221 222 222 223 225 229 232 235 235 232 227 224
217 219 220 220 220 218 217 216 218 220 223 225 226 227 228 228 223 216 212 215 221 226 230 230 230 228 226 226 226 224 222 221 221 223 224 225 226 225 224 223 223 223 222 220 219 218 217 216 216 217 218 218 219 220 220 221 222 223 224 223 224 225 228 230 231 231 229 225 223
217 218 219 219 219 217 216 216 218 220 223 224 226 227 228 226 221 216 213 215 220 225 229 232 233 232 230 228 228 226 224 223 222 222 223 225 227 229 229 229 229 228 228 227 225 224 222 220 219 218 216 214 214 215 218 221 223 224 225 225 226 226 227 228 228 228 227 225 222
216 217 218 218 218 217 216 217 219 221 223 225 226 226 226 223 220 218 217 218 221 225 229 232 235 236 234 232 230 228 227 225 225 224 225 227 229 231 232 232 232 232 231 231 230 228 226 223 220 219 217 214 210 210 213 217 221 224 226 226 226 227 227 226 226 227 227 225 223
215 217 218 218 219 219 218 218 220 222 224 225 225 225 223 221 220 220 220 221 223 225 228 231 234 236 238 237 235 232 229 228 227 228 229 230 232 234 234 235 234 234 233 233 232 231 228 224 222 220 218 215 210 208 209 213 217 221 225 226 226 226 226 225 225 226 227 225 222
214 216 217 219 220 220 220 220 220 222 223 224 224 223 222 222 222 222 223 222 223 224 226 228 231 234 238 239 238 235 232 230 229 230 232 233 235 236 237 237 235 235 235 234 233 232 229 226 223 221 219 216 213 209 208 210 214 218 222 224 225 225 224 224 224 226 226 224 222
212 214 216 218 219 219 219 220 221 221 222 222 222 222 222 222 223 223 222 221 221 221 222 224 228 232 236 238 237 236 235 233 233 233 234 235 236 237 238 238 237 237 237 236 235 233 231 228 226 224 221 218 216 213 211 210 212 215 218 220 222 222 223 223 224 225 225 224 223
210 211 213 215 216 217 219 220 221 222 221 221 221 221 220 220 220 220 220 219 219 218 219 222 226 231 235 237 237 238 238 238 237 237 237 237 237 238 239 239 238 238 238 237 236 234 233 231 229 227 224 221 219 217 215 214 214 215 216 218 219 220 221 223 224 225 225 225 226
207 209 211 212 214 216 219 221 222 221 219 217 217 217 216 216 215 216 217 218 218 217 218 220 224 229 234 237 239 240 241 241 241 241 240 239 239 239 239 239 238 238 239 239 238 236 235 234 232 230 227 224 221 220 219 219 218 218 218 219 220 221 224 225 227 227 226 226 228
207 209 211 213 216 218 221 222 220 217 214 212 212 213 214 214 214 215 217 220 220 219 219 220 223 226 230 234 237 240 241 242 242 241 240 240 240 239 240 240 239 240 240 240 240 239 238 237 235 233 230 226 224 222 222 222 222 222 222 222 224 226 228 230 229 228 228 228 229
211 213 215 216 218 219 220 219 216 212 210 209 211 213 215 216 217 218 220 223 223 222 221 221 222 224 226 229 232 237 240 242 242 241 240 240 239 239 239 240 240 241 241 242 242 242 242 241 240 237 233 230 227 225 224 224 225 226 226 226 226 228 230 231 230 229 228 229 231
216 217 217 217 216 216 217 216 214 212 211 212 214 217 219 220 221 222 224 226 226 225 222 221 221 222 223 225 228 232 237 241 243 243 242 241 239 239 239 239 240 241 242 243 244 244 245 245 244 242 238 234 231 229 228 228 228 229 229 229 229 229 229 229 229 228 229 230 233
218 217 214 213 212 212 213 215 216 216 216 217 218 220 221 222 223 224 226 228 229 227 223 221 220 221 222 223 226 229 234 238 242 245 246 244 241 239 238 239 240 241 242 244 245 246 246 247 246 244 242 238 236 234 233 232 233 233 233 233 233 233 231 230 229 229 230 232 236
219 215 212 211 212 213 214 216 218 218 218 218 219 221 222 223 224 226 228 229 229 227 224 221 220 220 222 225 228 231 233 237 241 245 247 247 245 241 239 238 239 240 242 244 246 247 248 248 247 246 244 242 240 238 238 238 238 239 239 239 239 238 236 234 232 232 233 236 239
219 215 213 214 215 215 216 216 216 216 217 218 220 221 223 224 225 227 229 229 228 226 223 221 220 220 223 226 229 232 235 238 241 244 246 247 246 243 240 238 238 239 241 244 245 247 248 248 248 247 246 245 243 242 242 242 242 242 243 243 242 241 239 237 236 236 237 239 242
218 215 215 215 215 214 214 213 213 214 216 219 221 222 222 224 226 228 229 228 226 224 222 221 221 221 223 225 228 231 236 240 243 245 246 246 245 244 243 241 240 240 242 243 244 246 247 247 248 248 247 247 246 245 245 244 243 242 241 240 239 238 237 237 236 236 238 239 241
216 215 216 215 214 212 211 211 213 216 220 222 222 221 222 224 227 228 228 226 225 224 224 224 225 225 225 225 227 231 237 241 243 244 245 245 245 245 245 244 244 244 244 244 245 245 246 247 248 248 249 249 248 247 244 242 240 238 235 233 232 232 232 232 233 234 236 238 240
214 215 215 215 214 213 213 214 218 221 223 222 222 222 224 227 227 227 226 226 228 229 229 229 229 229 228 228 229 232 236 239 241 241 241 241 242 242 243 245 246 246 246 246 246 246 247 247 248 249 250 250 247 243 238 234 232 232 232 231 231 230 231 231 233 234 235 237 238
215 214 215 216 216 217 219 221 223 224 223 222 222 224 227 229 229 227 227 228 231 232 232 231 231 230 229 228 230 232 234 235 236 237 237 236 235 235 237 240 242 243 244 244 244 245 246 246 246 246 245 243 239 235 232 230 229 228 229 229 230 231 232 232 233 234 235 236 237
218 216 215 217 219 222 224 225 223 222 221 221 222 224 227 228 228 229 229 229 231 232 231 230 229 227 226 226 227 229 230 230 230 230 230 229 228 229 232 236 237 238 239 238 239 239 241 242 241 240 238 235 233 231 230 228 227 225 225 226 228 229 230 231 232 233 234 234 235
221 218 216 217 220 223 225 224 221 218 219 220 222 224 226 227 227 228 228 228 228 228 226 222 220 219 222 225 228 228 228 227 225 224 224 224 226 230 233 235 235 236 236 235 235 235 236 236 236 234 233 233 232 231 230 228 227 226 226 227 228 229 230 232 233 235 236 237 237
226 222 218 217 220 223 225 224 221 219 219 220 221 223 225 225 225 225 225 225 224 221 215 208 208 215 224 228 227 225 224 224 222 219 218 220 223 228 230 233 234 236 237 236 236 236 236 236 235 233 232 231 231 231 231 231 231 231 232 233 234 235 237 239 240 242 243 245 246
230 227 223 220 220 222 224 224 223 221 220 221 222 223 224 224 223 221 220 219 215 208 201 201 211 220 224 225 223 221 220 220 219 218 217 217 219 222 226 230 233 236 237 238 239 239 239 238 238 236 235 233 232 232 233 234 235 237 238 240 241 243 245 247 248 250 251 253 254
235 232 228 224 223 223 224 224 224 223 222 222 223 224 224 223 220 216 212 208 203 199 201 209 217 220 220 221 221 220 220 220 221 221 221 220 221 223 226 229 232 235 237 239 239 240 240 240 240 240 240 238 237 236 236 237 238 240 242 244 245 247 249 250 252 254 256 257 259
236 234 231 228 226 225 224 224 225 225 224 224 223 223 222 221 217 211 205 201 201 204 208 214 216 217 217 217 218 219 220 221 222 223 223 223 223 225 227 229 231 234 236 237 238 238 239 239 240 241 242 242 242 242 241 241 242 243 245 246 248 249 251 252 254 255 257 259 260
236 234 232 229 227 226 225 225 225 226 225 224 222 221 219 218 214 210 206 204 205 207 210 213 214 215 215 216 216 218 220 222 224 225 226 227 227 227 228 229 230 232 233 235 236 237 237 237 238 239 240 241 243 243 244 245 245 246 247 248 248 249 251 253 254 255 256 257 258
236 234 232 230 228 227 226 225 225 225 225 224 222 219 215 213 210 208 206 206 206 208 211 213 213 214 215 216 218 219 221 223 224 226 228 229 230 230 230 230 231 231 232 233 234 235 237 237 238 238 238 239 240 242 243 245 246 247 247 248 248 248 249 251 253 254 254 254 255
Height
1392 1394 1395 1396 1398 1400 1401 1403 1404 1405 1406 1407 1409 1410 1411 1413 1414 1415 1416 1417 1419 1420 1421 1423 1424 1425 1426 1427 1428 1430 1431 1432 1433 1434 1434 1435 1436 1438 1439 1441 1443 1445 1449 1452 1455 1458 1461 1463 1466 1469 1471 1472 1474 1475 1477 1479 1481 1482 1483 1482 1483 1484 1486 1487 1488 1490 1492 1496 1499
1390 1392 1394 1395 1397 1399 1400 1402 1403 1404 1405 1406 1408 1409 1410 1411 1412 1414 1415 1416 1417 1419 1420 1421 1422 1423 1424 1426 1427 1429 1430 1431 1432 1432 1433 1433 1434 1436 1438 1439 1442 1445 1448 1451 1453 1456 1458 1461 1464 1467 1469 1470 1472 1473 1475 1477 1479 1481 1481 1480 1481 1482 1484 1486 1487 1489 1491 1494 1497
1389 1391 1392 1394 1396 1397 1399 1400 1401 1402 1404 1405 1407 1408 1409 1410 1411 1413 1414 1415 1416 1417 1419 1419 1420 1421 1423 1424 1426 1427 1428 1429 1430 1431 1431 1432 1433 1434 1436 1439 1441 1444 1447 1449 1451 1454 1456 1459 1462 1464 1466 1468 1469 1471 1473 1475 1477 1479 1479 1478 1479 1480 1482 1484 1485 1487 1489 1492 1495
1388 1389 1391 1392 1394 1396 1397 1399 1399 1401 1403 1404 1405 1407 1408 1409 1410 1411 1413 1414 1415 1416 1417 1418 1419 1420 1421 1423 1424 1425 1427 1428 1429 1429 1430 1430 1431 1433 1435 1437 1440 1443 1445 1447 1449 1451 1454 1457 1459 1461 1463 1465 1467 1469 1471 1473 1474 1476 1477 1477 1477 1478 1479 1482 1484 1486 1488 1490 1492
1386 1388 1389 1391 1392 1394 1396 1397 1399 1400 1402 1403 1404 1405 1407 1408 1409 1410 1412 1413 1414 1415 1415 1417 1418 1419 1420 1421 1423 1424 1425 1426 1427 1428 1429 1429 1430 1431 1434 1436 1439 1441 1444 1445 1447 1449 1452 1455 1457 1459 1460 1463 1465 1467 1468 1470 1472 1474 1476 1476 1476 1476 1478 1479 1482 1484 1486 1488 1490
1385 1386 1388 1389 1391 1393 1395 1396 1398 1399 1400 1402 1403 1404 1405 1407 1408 1409 1410 1411 1413 1414 1414 1415 1417 1418 1419 1420 1422 1423 1424 1425 1426 1427 1428 1429 1430 1431 1433 1435 1437 1439 1442 1444 1446 1448 1450 1452 1455 1457 1458 1460 1463 1464 1466 1468 1470 1473 1474 1475 1475 1475 1476 1478 1479 1482 1484 1486 1488
1383 1385 1386 1388 1390 1392 1394 1395 1396 1398 1399 1400 1402 1403 1404 1405 1407 1408 1409 1410 1412 1413 1414 1414 1415 1417 1418 1419 1420 1422 1423 1424 1425 1426 1427 1429 1430 1432 1433 1434 1436 1439 1441 1443 1444 1446 1448 1450 1452 1454 1456 1458 1460 1462 1464 1466 1469 1471 1472 1473 1473 1474 1474 1476 1478 1479 1482 1484 1486
1383 1384 1385 1387 1389 1391 1392 1394 1395 1396 1398 1399 1400 1402 1403 1404 1405 1407 1408 1409 1411 1412 1412 1413 1414 1415 1417 1418 1419 1421 1422 1423 1424 1426 1427 1428 1430 1431 1432 1434 1435 1437 1439 1441 1443 1445 1447 1448 1450 1452 1454 1456 1458 1459 1461 1464 1466 1469 1470 1470 1471 1472 1473 1475 1476 1478 1480 1482 1484
1382 1383 1384 1386 1388 1389 1391 1393 1394 1395 1396 1398 1399 1400 1402 1403 1404 1406 1407 1409 1409 1410 1411 1412 1413 1414 1416 1417 1419 1420 1421 1422 1424 1425 1426 1427 1429 1430 1431 1433 1435 1437 1439 1440 1442 1444 1445 1447 1448 1450 1452 1454 1455 1457 1459 1461 1464 1466 1468 1469 1470 1470 1472 1473 1475 1477 1479 1481 1483
1380 1382 1383 1385 1386 1388 1390 1391 1393 1394 1395 1397 1398 1399 1401 1402 1404 1405 1406 1408 1409 1410 1410 1411 1412 1413 1415 1416 1417 1419 1420 1421 1423 1424 1425 1426 1427 1429 1430 1432 1434 1436 1438 1439 1440 1442 1443 1445 1447 1449 1450 1452 1454 1455 1457 1459 1461 1464 1466 1467 1468 1469 1470 1471 1473 1475 1478 1479 1481
1379 1380 1382 1384 1385 1387 1389 1390 1392 1393 1394 1396 1397 1399 1400 1401 1403 1404 1405 1407 1408 1409 1409 1410 1411 1412 1414 1415 1416 1418 1419 1420 1422 1423 1424 1425 1426 1428 1429 1431 1433 1434 1436 1437 1439 1440 1442 1443 1445 1447 1449 1451 1452 1454 1455 1457 1459 1461 1463 1465 1467 1468 1469 1469 1471 1474 1476 1477 1479
1378 1379 1381 1382 1384 1386 1388 1389 1391 1392 1394 1395 1396 1398 1399 1400 1402 1403 1405 1406 1407 1408 1409 1409 1410 1411 1412 1414 1415 1417 1418 1419 1421 1422 1423 1424 1425 1427 1429 1430 1432 1433 1434 1436 1438 1439 1440 1441 1443 1445 1447 1449 1450 1452 1454 1454 1456 1459 1461 1463 1465 1466 1467 1468 1469 1472 1474 1475 1477
1377 1378 1380 1381 1383 1384 1386 1388 1389 1391 1392 1394 1395 1396 1398 1399 1401 1402 1404 1405 1406 1407 1408 1409 1409 1410 1412 1413 1414 1415 1417 1419 1421 1422 1423 1424 1425 1427 1428 1430 1431 1432 1433 1435 1436 1438 1439 1440 1441 1443 1445 1446 1448 1449 1451 1452 1454 1456 1459 1461 1463 1464 1465 1466 1468 1470 1472 1474 1475
1376 1377 1379 1380 1382 1384 1385 1387 1388 1390 1391 1393 1394 1395 1397 1399 1400 1401 1403 1404 1405 1406 1407 1408 1409 1410 1411 1412 1413 1414 1416 1418 1420 1421 1423 1424 1425 1426 1428 1429 1430 1431 1432 1434 1435 1437 1438 1439 1440 1441 1442 1443 1444 1446 1448 1450 1452 1454 1456 1458 1460 1462 1463 1464 1466 1468 1470 1472 1473
1375 1376 1378 1379 1381 1382 1384 1386 1387 1389 1390 1392 1393 1394 1396 1397 1399 1400 1401 1403 1404 1405 1407 1408 1409 1409 1410 1411 1413 1414 1415 1417 1419 1421 1422 1423 1424 1426 1427 1428 1429 1430 1431 1433 1434 1436 1437 1438 1439 1439 1440 1440 1441 1443 1445 1447 1449 1451 1454 1456 1458 1459 1461 1463 1465 1466 1468 1469 1471
1374 1375 1377 1378 1380 1381 1383 1384 1386 1388 1389 1391 1392 1394 1395 1396 1398 1399 1400 1402 1403 1404 1406 1407 1408 1409 1410 1411 1412 1413 1415 1416 1418 1419 1421 1422 1424 1425 1426 1427 1428 1429 1430 1432 1434 1435 1436 1436 1437 1438 1439 1439 1439 1440 1441 1444 1447 1449 1451 1453 1455 1457 1459 1461 1463 1464 1466 1467 1469
1373 1374 1376 1377 1379 1380 1382 1384 1385 1387 1388 1389 1391 1392 1394 1395 1396 1398 1399 1401 1402 1404 1405 1406 1407 1408 1409 1410 1412 1413 1414 1415 1416 1418 1419 1420 1422 1423 1424 1425 1426 1428 1429 1431 1432 1433 1434 1434 1435 1437 1438 1439 1439 1439 1439 1441 1444 1446 1449 1450 1452 1454 1456 1458 1460 1462 1463 1464 1466
1372 1374 1375 1376 1378 1379 1381 1383 1384 1386 1387 1389 1390 1391 1393 1394 1395 1397 1398 1400 1401 1403 1404 1405 1406 1407 1409 1409 1410 1412 1413 1414 1415 1416 1418 1419 1420 1421 1423 1424 1425 1426 1428 1429 1430 1431 1432 1433 1434 1435 1437 1438 1439 1439 1439 1439 1441 1444 1446 1448 1450 1452 1454 1456 1458 1459 1461 1462 1463
1371 1373 1374 1376 1377 1379 1380 1382 1384 1385 1386 1388 1389 1391 1392 1393 1394 1396 1397 1399 1400 1401 1403 1404 1405 1406 1407 1409 1409 1410 1412 1413 1414 1415 1416 1417 1419 1420 1421 1422 1424 1425 1426 1427 1428 1429 1430 1431 1432 1434 1435 1437 1438 1439 1439 1439 1440 1442 1444 1446 1448 1449 1451 1453 1455 1457 1459 1460 1461
1371 1372 1373 1375 1376 1378 1379 1381 1383 1384 1386 1387 1389 1390 1391 1392 1394 1395 1397 1398 1399 1400 1402 1403 1404 1405 1406 1407 1409 1409 1410 1412 1413 1414 1415 1416 1417 1418 1419 1420 1422 1423 1424 1425 1427 1428 1429 1430 1431 1433 1434 1436 1437 1438 1439 1439 1440 1441 1443 1444 1446 1447 1449 1451 1453 1455 1457 1459 1460
1370 1372 1373 1374 1376 1377 1379 1380 1382 1384 1385 1387 1388 1389 1391 1392 1393 1394 1395 1397 1398 1399 1401 1402 1403 1404 1405 1406 1408 1409 1409 1411 1412 1413 1414 1415 1416 1417 1418 1419 1420 1421 1423 1424 1425 1426 1427 1428 1430 1431 1433 1434 1436 1437 1438 1439 1440 1441 1442 1443 1444 1445 1447 1449 1451 1454 1456 1458 1459
1370 1371 1373 1374 1375 1377 1378 1380 1381 1383 1384 1386 1388 1389 1390 1391 1392 1394 1395 1396 1397 1399 1400 1401 1402 1403 1404 1405 1407 1408 1409 1410 1411 1412 1413 1414 1415 1416 1417 1418 1419 1420 1421 1423 1424 1424 1425 1427 1429 1430 1432 1433 1434 1436 1437 1438 1439 1440 1441 1442 1443 1444 1446 1448 1450 1453 1454 1456 1458
1370 1371 1372 1374 1375 1376 1378 1379 1381 1382 1384 1385 1387 1388 1389 1390 1392 1393 1394 1395 1396 1398 1399 1400 1401 1402 1404 1405 1406 1407 1408 1409 1410 1411 1412 1413 1414 1414 1415 1417 1418 1419 1420 1421 1422 1423 1424 1426 1427 1429 1430 1431 1433 1434 1436 1437 1438 1439 1440 1441 1442 1443 1445 1447 1449 1451 1453 1454 1455
1370 1371 1372 1373 1375 1376 1377 1379 1380 1382 1383 1385 1386 1387 1389 1389 1391 1392 1393 1394 1395 1397 1398 1399 1400 1402 1403 1404 1405 1406 1407 1408 1409 1410 1411 1412 1413 1414 1414 1415 1416 1418 1419 1420 1421 1422 1423 1424 1426 1427 1429 1430 1431 1433 1434 1435 1437 1438 1439 1440 1441 1442 1444 1446 1448 1449 1451 1452 1453
1369 1370 1372 1373 1374 1375 1377 1378 1379 1381 1382 1384 1385 1386 1387 1389 1390 1391 1392 1393 1394 1396 1397 1398 1399 1401 1402 1403 1404 1405 1406 1407 1408 1409 1410 1411 1412 1413 1414 1414 1415 1416 1418 1419 1420 1421 1422 1423 1424 1426 1427 1428 1430 1431 1433 1434 1435 1436 1438 1439 1440 1441 1443 1444 1446 1447 1449 1450 1451
1369 1370 1371 1372 1374 1375 1376 1377 1379 1380 1381 1383 1384 1385 1386 1388 1389 1390 1391 1393 1394 1395 1396 1397 1399 1400 1401 1402 1403 1404 1405 1406 1407 1408 1409 1410 1411 1412 1413 1413 1414 1415 1416 1417 1419 1420 1421 1422 1424 1424 1426 1427 1429 1430 1431 1433 1434 1435 1436 1438 1439 1440 1441 1442 1444 1445 1446 1448 1449
1369 1370 1371 1372 1373 1374 1375 1376 1378 1379 1380 1382 1383 1384 1385 1387 1388 1389 1391 1392 1393 1394 1395 1397 1398 1399 1400 1401 1402 1403 1404 1405 1406 1408 1409 1409 1410 1411 1412 1412 1413 1414 1415 1416 1418 1419 1420 1422 1423 1424 1425 1426 1427 1429 1430 1431 1433 1434 1435 1436 1438 1439 1439 1441 1442 1443 1445 1446 1448
1369 1369 1370 1371 1373 1374 1374 1376 1377 1378 1379 1381 1382 1384 1385 1386 1388 1389 1390 1391 1392 1394 1395 1396 1397 1398 1399 1400 1401 1402 1403 1404 1406 1407 1408 1409 1409 1410 1411 1412 1413 1413 1414 1415 1417 1418 1419 1421 1422 1423 1424 1425 1426 1428 1429 1430 1431 1433 1434 1435 1436 1437 1438 1439 1440 1442 1444 1445 1446
1368 1369 1370 1371 1372 1373 1374 1375 1376 1377 1379 1380 1381 1383 1384 1385 1387 1388 1389 1390 1392 1393 1394 1395 1396 1397 1399 1399 1400 1401 1403 1404 1405 1406 1407 1408 1409 1410 1411 1411 1412 1413 1414 1415 1416 1417 1419 1420 1421 1422 1423 1424 1425 1427 1428 1429 1430 1431 1432 1433 1434 1435 1436 1438 1439 1441 1442 1444 1445
1368 1369 1369 1370 1371 1372 1373 1374 1375 1377 1378 1379 1381 1382 1384 1384 1386 1387 1388 1389 1391 1392 1393 1394 1395 1397 1398 1399 1400 1401 1402 1403 1404 1405 1406 1407 1408 1409 1410 1411 1412 1413 1413 1414 1415 1417 1418 1419 1420 1421 1422 1424 1425 1426 1427 1428 1429 1430 1431 1432 1434 1434 1435 1437 1438 1440 1441 1442 1443
1368 1369 1369 1370 1371 1372 1373 1374 1375 1376 1378 1379 1380 1381 1383 1384 1385 1386 1387 1389 1390 1391 1392 1394 1395 1396 1397 1398 1399 1400 1401 1402 1403 1404 1405 1406 1408 1409 1410 1411 1412 1412 1413 1414 1415 1416 1418 1419 1420 1421 1422 1423 1424 1426 1427 1428 1429 1429 1430 1431 1432 1433 1434 1435 1436 1438 1439 1440 1441
1368 1369 1369 1370 1371 1372 1373 1374 1375 1376 1377 1379 1380 1381 1382 1383 1384 1385 1387 1388 1389 1390 1392 1393 1394 1395 1396 1397 1398 1399 1400 1401 1402 1403 1404 1406 1407 1408 1409 1410 1411 1412 1413 1414 1415 1416 1418 1419 1420 1421 1423 1424 1425 1426 1427 1427 1427 1427 1428 1429 1429 1431 1432 1433 1434 1435 1437 1438 1439
1367 1368 1369 1370 1371 1371 1372 1374 1374 1376 1377 1378 1379 1380 1382 1383 1384 1385 1386 1388 1389 1390 1391 1392 1393 1394 1395 1396 1398 1399 1399 1400 1401 1403 1404 1405 1406 1407 1408 1409 1410 1411 1412 1413 1415 1416 1417 1419 1420 1421 1423 1424 1424 1424 1424 1424 1424 1425 1426 1427 1428 1429 1431 1432 1433 1434 1435 1437 1438
1366 1367 1369 1369 1370 1371 1372 1373 1374 1375 1376 1378 1379 1380 1381 1382 1384 1385 1386 1387 1388 1389 1390 1392 1393 1394 1395 1396 1397 1398 1399 1400 1401 1402 1403 1404 1405 1406 1407 1409 1409 1409 1410 1412 1414 1415 1417 1418 1420 1421 1422 1422 1422 1422 1422 1423 1424 1424 1425 1426 1428 1429 1430 1431 1432 1433 1434 1435 1436
1365 1366 1368 1369 1370 1370 1371 1372 1373 1375 1376 1377 1379 1380 1381 1382 1383 1384 1385 1386 1388 1389 1390 1391 1393 1394 1395 1396 1397 1398 1399 1399 1400 1401 1403 1404 1404 1405 1406 1406 1407 1408 1410 1411 1413 1414 1416 1417 1419 1419 1420 1420 1420 1421 1422 1422 1423 1424 1425 1426 1427 1428 1429 1429 1430 1431 1433 1434 1434
1364 1365 1367 1368 1369 1370 1370 1372 1373 1374 1376 1377 1378 1379 1380 1382 1383 1384 1385 1386 1387 1389 1390 1391 1392 1394 1394 1395 1396 1397 1397 1398 1399 1400 1402 1403 1404 1404 1404 1404 1405 1407 1409 1410 1412 1413 1415 1416 1417 1418 1418 1419 1419 1420 1421 1421 1422 1423 1424 1425 1426 1426 1427 1428 1429 1430 1431 1432 1433
1364 1365 1366 1367 1369 1369 1370 1371 1373 1374 1375 1377 1378 1379 1380 1381 1383 1384 1385 1386 1387 1388 1389 1391 1392 1393 1392 1392 1393 1394 1395 1396 1397 1398 1399 1401 1402 1402 1403 1404 1405 1407 1408 1409 1411 1412 1414 1415 1415 1416 1416 1417 1418 1419 1419 1420 1421 1422 1423 1424 1424 1425 1426 1426 1427 1428 1429 1430 1431
1363 1364 1365 1367 1368 1369 1370 1371 1373 1374 1375 1377 1378 1379 1380 1381 1382 1384 1384 1385 1387 1388 1389 1390 1390 1390 1390 1391 1392 1393 1394 1395 1397 1398 1399 1400 1401 1402 1403 1404 1405 1406 1408 1409 1410 1411 1412 1413 1414 1414 1415 1416 1416 1417 1418 1419 1419 1420 1421 1422 1423 1423 1424 1424 1425 1426 1427 1428 1429
1362 1363 1365 1366 1367 1369 1370 1371 1373 1374 1375 1377 1378 1379 1380 1381 1382 1383 1384 1386 1387 1388 1388 1388 1388 1388 1389 1389 1391 1392 1393 1394 1396 1397 1398 1399 1400 1401 1402 1403 1404 1406 1407 1408 1409 1410 1411 1412 1413 1413 1414 1414 1415 1416 1417 1417 1418 1419 1419 1420 1421 1421 1422 1423 1423 1424 1425 1426 1427
1361 1363 1364 1365 1367 1369 1370 1371 1373 1374 1375 1377 1378 1379 1380 1381 1382 1384 1384 1385 1386 1385 1385 1385 1386 1387 1388 1389 1390 1391 1393 1394 1395 1396 1397 1398 1399 1400 1402 1403 1404 1405 1406 1407 1408 1409 1410 1410 1411 1412 1413 1413 1414 1414 1415 1416 1416 1417 1418 1418 1419 1419 1420 1421 1421 1422 1423 1424 1425
1361 1362 1364 1365 1367 1368 1369 1371 1372 1374 1375 1377 1378 1379 1380 1381 1382 1383 1383 1383 1383 1384 1384 1385 1386 1387 1387 1388 1389 1390 1392 1393 1394 1395 1396 1397 1399 1400 1401 1402 1403 1404 1405 1406 1407 1408 1409 1409 1410 1411 1411 1412 1413 1413 1414 1414 1415 1415 1416 1416 1417 1418 1418 1419 1420 1421 1422 1422 1423